Regional Weather Roundup
Issued by NWS Midland/Odessa, TX

Skip options and go directly to product.
Home | Oldest Version | Previous Version | Current Version | All | Text Only | Save Text | Print | Product List | Glossary On

Skip product version selection by date and time.   
349
ASUS44 KMAF 300602
RWRMAF
MIDLAND AREA WEATHER ROUNDUP
NATIONAL WEATHER SERVICE MIDLAND TX
100 AM CDT TUE SEP 30 2014

...IN SOUTHWEST TEXAS AND SOUTHEAST NEW MEXICO...

CITY           SKY/WX    TMP DP  RH WIND       PRES   REMARKS
ALPINE         PTCLDY    67  55  66 SW3       30.08S
ANDREWS        FAIR      68  58  69 S10       29.95F
ARTESIA        NOT AVBL
BIG SPRING     CLEAR     72  57  60 SE8       29.96S
CARLSBAD       PTCLDY    69  59  70 S7        29.90F
DRYDEN           N/A     70  63  78 NE7       29.91F
FORT STOCKTON  CLEAR     69  59  70 S17       29.94F
GUAD PASS      MOCLDY    66  55  67 S8        30.06F
HOBBS          PTCLDY    64  57  77 SE9       29.97S
MARFA          PTCLDY    61  55  82 W5        30.07S
MIDLAND AIRPK  PTCLDY    71  58  63 S10       29.94F
MIDLAND INTL   PTCLDY    71  58  63 S10       29.94F
ODESSA         PTCLDY    70  58  65 S9        29.95F
PECOS          PTCLDY    70  58  66 E10       29.90S
PRESIDIO       FAIR      75  59  58 N8G16     29.92S
SEMINOLE       PTCLDY    65  57  75 S8        29.96F
SNYDER         PTCLDY    70  58  66 SE8       29.95S
WINK           PTCLDY    70  58  65 SE10      29.90F
$$
...OTHER STATIONS IN TEXAS...

CITY           SKY/WX    TMP DP  RH WIND       PRES   REMARKS
ABILENE        CLEAR     68  55  63 SE7       29.94S
AMARILLO       PTCLDY    65  57  75 S18       29.96S
AUSTIN         CLEAR     68  63  84 CALM      29.89S
BROWNSVILLE    CLEAR     76  76 100 CALM      29.85F
CORPUS CHRISTI PTCLDY    75  73  93 CALM      29.86F
DALLAS FTW     PTCLDY    73  63  70 SE5       29.90F
DEL RIO        CLEAR     74  67  78 SE6       29.89S
EL PASO        PTCLDY    74  57  55 S6        29.94R
HOUSTON INT    PTCLDY    74  71  91 E5        29.86F
LUBBOCK        CLEAR     65  57  75 S12       29.95F
SAN ANGELO     CLEAR     69  57  65 S5        29.92F
SAN ANTONIO    CLEAR     73  64  73 NW3       29.90F
WACO           CLEAR     70  60  70 CALM      29.90S
WICHITA FALLS  NOT AVBL
$$
...OTHER LOCATIONS IN NEW MEXICO...

CITY           SKY/WX    TMP DP  RH WIND       PRES   REMARKS
ALAMAGORDO     CLEAR     68  54  60 S6        29.94F
ALBUQUERQUE    CLEAR     61  31  32 NW9       30.05S
CANNON AFB     PTCLDY    62  57  83 SE6       29.98S
CLOVIS           N/A     63  55  77 SE6       30.01R
HOLLOMAN AFB   CLEAR     65  55  69 CALM      29.92F
ROSWELL        CLEAR     67  58  72 S10       29.93S
RUIDOSO        CLEAR     63  48  59 NW10      30.11S
SANTA FE       PTCLDY    47  35  63 N10       30.08S
TRUTH OR CONSE CLEAR     64  47  53 NW6       29.98S
TUCUMCARI      MOCLDY    64  59  83 S10       29.93F
$$

USA.gov is the U.S. government's official web portal to all federal, state and local government web resources and services.